Flag for United Kingdom Weather past 2 weeks in Derby, England, United Kingdom

Now
73 °F

Scattered clouds.


Feels Like: 76 °F
Forecast: 57 / 79 °F
Wind: 8 mph from Northeast

Location: East Midlands

Current Time: Jul 22, 2014 at 3:05:08 PM

Latest Report: Jul 22, 2014 at 2:20 PM


Visibility: N/A

Pressure: 30.24 "Hg

Humidity: 61%

Dew point: 59 °F

Location of DerbyLocation

Historic Weather in Derby — Graph

°F

Derby temperature yesterday

Maximum temperature yesterday: 75 °F (at 12:50 PM)
Minimum temperature yesterday: 59 °F (at 12:50 AM)
Average temperature yesterday: 67 °F

Past Weeks' High & Low Weather Summary

 TemperatureHumidityPressure
High82 °F (Jul 18, 4:50 PM)100% (Jul 8, 4:50 AM)30.27 "Hg (Jul 8, 4:50 AM)
Low50 °F (Jul 14, 4:20 AM)40% (Jul 10, 11:20 AM)29.71 "Hg (Jul 13, 6:50 AM)
Average65 °F75%29.99 "Hg
* Reported Jul 7 1:20 PM — Jul 22 1:50 PM, Derby, Weather by CustomWeather, © 2014

Note: Actual official high and low records may vary slightly from our data, if they occured in-between our weather recording intervals... More about our weather records

Advertising

Derby weather history for previous 24 hours

 ConditionsComfort  
Time TempWeatherWind HumidityBarometerVisibility
1:50 PM
Jul 22
73 °FScattered clouds.6 mph57%30.24 "HgN/A
1:20 PM73 °FScattered clouds.9 mph61%30.24 "HgN/A
12:50 PM73 °FScattered clouds.8 mph61%30.27 "HgN/A
12:20 PM72 °FPassing clouds.7 mph65%30.27 "HgN/A
11:20 AM68 °FPassing clouds.3 mph73%30.27 "HgN/A
10:20 AM63 °FPartly sunny.5 mph94%30.27 "Hg4 mi
9:50 AM61 °FFog.6 mph100%30.27 "Hg2 mi
9:20 AM61 °FFog.5 mph100%30.24 "Hg1 mi
8:50 AM59 °FFog.5 mph100%30.24 "Hg1 mi
8:20 AM59 °FFog.3 mph100%30.24 "Hg0 mi
7:50 AM57 °FFog.3 mph100%30.24 "Hg0 mi
7:20 AM57 °FFog.5 mph100%30.24 "Hg0 mi
6:50 AM57 °FFog.3 mph100%30.24 "Hg1 mi
6:20 AM57 °FFog.No wind94%30.24 "Hg1 mi
5:50 AM57 °FFog.2 mph94%30.21 "Hg5 mi
5:20 AM57 °FFog.No wind94%30.21 "Hg1 mi
4:50 AM57 °FClear.3 mph94%30.21 "Hg5 mi
4:20 AM55 °FClear.3 mph94%30.21 "Hg6 mi
3:50 AM57 °FClear.2 mph88%30.21 "Hg10 mi
3:20 AM59 °FClear.2 mph88%30.21 "Hg10 mi
2:50 AM59 °FClear.5 mph88%30.21 "Hg10 mi
2:20 AM61 °FClear.5 mph83%30.21 "Hg10 mi
1:50 AM61 °FClear.3 mph83%30.21 "Hg10 mi
1:20 AM61 °FClear.3 mph77%30.21 "Hg10 mi
12:50 AM61 °FClear.5 mph83%30.18 "Hg10 mi
12:20 AM63 °FClear.5 mph77%30.18 "Hg10 mi
11:50 PM
Jul 21
63 °FClear.5 mph77%30.18 "Hg10 mi
11:20 PM64 °FClear.6 mph68%30.18 "Hg10 mi
10:50 PM64 °FClear.6 mph68%30.18 "Hg10 mi
10:20 PM64 °FClear.5 mph68%30.18 "Hg10 mi
9:50 PM66 °FPassing clouds.5 mph64%30.18 "HgN/A
9:20 PM66 °FSunny.6 mph64%30.15 "Hg10 mi
8:50 PM68 °FSunny.5 mph60%30.15 "Hg10 mi
8:20 PM72 °FSunny.6 mph57%30.15 "Hg10 mi
7:50 PM72 °FSunny.6 mph57%30.15 "Hg10 mi
7:20 PM72 °FSunny.8 mph57%30.15 "Hg10 mi
6:50 PM73 °FSunny.7 mph53%30.12 "Hg10 mi
6:20 PM75 °FSunny.8 mph50%30.12 "Hg10 mi
5:50 PM73 °FScattered clouds.9 mph57%30.12 "HgN/A
5:20 PM75 °FScattered clouds.9 mph54%30.12 "HgN/A
4:50 PM73 °FScattered clouds.7 mph53%30.12 "HgN/A
4:20 PM75 °FScattered clouds.6 mph50%30.12 "HgN/A
3:50 PM75 °FScattered clouds.7 mph50%30.12 "HgN/A
3:20 PM73 °FScattered clouds.6 mph57%30.12 "HgN/A
Weather by CustomWeather, © 2014

See weather overviewHow to use our weather pages